This demonstration page uses our WeatherBlox Daily Observations layout. Learn more.

Left ArrowRight Arrow

Hourly Observations for October 21, 2019

Temp ( °F °C ) Dew Point ( °F °C ) Humidity (%) Winds ( mph kmh ) Pressure ( in mb ) Visibility ( mi km ) Precip ( " mm )
12:53 am 00:53 Clear 62 16.7 13 -10.6 14 14 N 15 24 29.75 1008 10 16 0.00 0.00
1:53 am 01:53 Clear 58 14.4 5 -15 12 12 N 10 17 29.77 1008 10 16 0.00 0.00
2:53 am 02:53 Clear 53 11.7 5 -15 14 14 N 9 15 29.80 1009 10 16 0.00 0.00
3:53 am 03:53 Clear 50 10 5 -15 16 16 NNW 10 17 29.81 1010 10 16 0.00 0.00
4:53 am 04:53 Clear 47 8.3 5 -15 18 18 W 6 9 29.84 1011 7 11 0.00 0.00
5:53 am 05:53 Clear 44 6.7 6 -14.4 21 21 W 5 7 29.88 1012 10 16 0.00 0.00
6:53 am 06:53 Clear 43 6.1 6 -14.4 22 22 Calm 29.93 1014 10 16 0.00 0.00
7:53 am 07:53 Clear 43 6.1 8 -13.3 24 24 WSW 3 6 29.94 1014 10 16 0.00 0.00
8:53 am 08:53 Sunny 47 8.3 11 -11.7 23 23 WNW 3 6 29.96 1015 10 16 0.00 0.00
9:53 am 09:53 Sunny 58 14.4 5 -15 12 12 Calm 29.98 1015 10 16 0.00 0.00
10:53 am 10:53 Sunny 63 17.2 1 -17.2 8 8 NW 5 7 29.99 1016 10 16 0.00 0.00
11:53 am 11:53 Sunny 66 18.9 1 -17.2 7 7 VRB 3 6 29.97 1015 10 16 0.00 0.00
12:53 pm 12:53 Sunny 70 21.1 0 -17.8 6 6 NNW 8 13 29.94 1014 10 16 0.00 0.00
1:53 pm 13:53 Sunny 69 20.6 1 -17.2 6 6 VRB 3 6 29.92 1013 10 16 0.00 0.00
2:53 pm 14:53 Sunny 73 22.8 2 -16.7 6 6 SW 9 15 29.89 1012 10 16 0.00 0.00
3:53 pm 15:53 Sunny 74 23.3 3 -16.1 6 6 WNW 6 9 29.87 1011 10 16 0.00 0.00
4:53 pm 16:53 Sunny 76 24.4 3 -16.1 6 6 SW 6 9 29.85 1011 10 16 0.00 0.00
5:53 pm 17:53 Sunny 77 25 4 -15.6 6 6 Calm 29.85 1011 10 16 0.00 0.00
6:53 pm 18:53 Sunny 76 24.4 5 -15 6 6 Calm 29.86 1011 10 16 0.00 0.00
7:53 pm 19:53 Clear 64 17.8 11 -11.7 12 12 NE 8 13 29.92 1013 10 16 0.00 0.00
8:53 pm 20:53 Clear 60 15.6 12 -11.1 15 15 NE 8 13 29.96 1014 10 16 0.00 0.00
9:53 pm 21:53 Clear 57 13.9 13 -10.6 17 17 NE 8 13 29.98 1015 10 16 0.00 0.00
10:53 pm 22:53 Clear 51 10.6 15 -9.4 24 24 N 7 11 30.01 1016 10 16 0.00 0.00
11:53 pm 23:53 Clear 49 9.4 19 -7.2 31 31 NNW 5 7 30.04 1017 10 16 0.00 0.00

Powered by AerisWeather